Home   Weather   Izmir   Past weeks
Flag for Turkey

Past Weather in Izmir, Turkey — Yesterday and Last 2 Weeks

Now
59 °F

Clear.


Feels Like: 59 °F
Forecast: 87 / 60 °F
Wind: No wind

Location: Izmir / Cigli

Current Time: May 25, 2019 at 6:18:29 am

Latest Report: May 25, 2019 at 4:50 am


Visibility: 10 mi

Pressure: 29.89 "Hg

Humidity: 88%

Dew Point: 55 °F

Location of IzmirLocation

Past Weather in Izmir — Graph

°F

Izmir Temperature Yesterday

Maximum temperature yesterday: 77 °F (at 12:50 pm)
Minimum temperature yesterday: 61 °F (at 5:50 am)
Average temperature yesterday: 70 °F

High & Low Weather Summary for the Past Weeks

 TemperatureHumidityPressure
High88 °F (May 15, 2:50 pm)94% (May 11, 5:50 am)30.07 "Hg (May 11, 5:50 am)
Low52 °F (May 12, 4:50 am)22% (May 14, 3:35 pm)29.71 "Hg (May 17, 2:50 pm)
Average71 °F58%29.88 "Hg
* Reported May 10 4:50 am — May 25 4:50 am, Izmir. Weather by CustomWeather, © 2019

Note: Actual official high and low records may vary slightly from our data, if they occured in-between our weather recording intervals... More about our weather records

Advertising

Izmir Weather History for the Previous 24 Hours

Scroll right to see more
 ConditionsComfort  
Time TempWeatherWind HumidityBarometerVisibility
4:50 am
Sat, May 25
59 °FClear.No wind88%29.89 "Hg10 mi
3:50 am61 °FClear.No wind83%29.89 "Hg10 mi
2:50 am63 °FClear.3 mph77%29.89 "Hg10 mi
1:50 am64 °FClear.5 mph78%29.89 "Hg10 mi
12:50 am64 °FPassing clouds.5 mph78%29.89 "HgN/A
11:50 pm
Fri, May 24
63 °FPassing clouds.6 mph77%29.86 "HgN/A
10:50 pm64 °FPassing clouds.5 mph78%29.86 "HgN/A
9:50 pm64 °FPassing clouds.7 mph78%29.83 "HgN/A
7:50 pm70 °FScattered clouds.12 mph53%29.80 "HgN/A
6:50 pm72 °FScattered clouds.16 mph47%29.80 "HgN/A
5:50 pm75 °FScattered clouds.18 mph47%29.80 "HgN/A
4:50 pm75 °FScattered clouds.18 mph44%29.80 "HgN/A
3:50 pm77 °FScattered clouds.20 mph51%29.77 "HgN/A
2:50 pm77 °FScattered clouds.15 mph51%29.77 "HgN/A
1:50 pm77 °FScattered clouds.13 mph51%29.80 "HgN/A
12:50 pm77 °FScattered clouds.12 mph51%29.80 "HgN/A
11:50 am75 °FScattered clouds.7 mph54%29.80 "HgN/A
10:50 am75 °FPassing clouds.12 mph54%29.80 "HgN/A
9:50 am73 °FPassing clouds.7 mph53%29.77 "HgN/A
8:50 am72 °FPassing clouds.6 mph53%29.77 "HgN/A
7:50 am70 °FPassing clouds.3 mph64%29.77 "HgN/A
6:50 am66 °FPassing clouds.3 mph73%29.77 "HgN/A
Weather by CustomWeather, © 2019

See weather overview